When you browse on this site, cookies collect data to enhance your experience and personalize the content and advertising you see.
Visit our Privacy Policy to learn more. By continuing to use the site, you agree to this use of cookies and data.
  • In Austria
  • List of Countries
  • For 7 days
  • Water Temperature
  • Weather Map
  • News
  • Weather Widgets
  • user-avatar
    Login

    Hourly Weather San Carlos

    Today, 26 January, Sunday

    Time Temperature Precipitation Wind Pressure Humidity
    00:00 +25°C° 0 mm 1 mps 745 mmHg 58%
    01:00 +24°C° 0 mm 1 mps 744 mmHg 58%
    02:00 +24°C° 0 mm 1 mps 744 mmHg 59%
    03:00 +24°C° 0 mm 1 mps 744 mmHg 60%
    04:00 +24°C° 0 mm 1 mps 744 mmHg 61%
    05:00 +25°C° 0 mm 1 mps 745 mmHg 61%
    06:00 +25°C° 0 mm 1 mps 745 mmHg 60%
    07:00 +26°C° 0 mm 1 mps 746 mmHg 60%
    08:00 +28°C° 0 mm 1 mps 746 mmHg 54%
    09:00 +31°C° 0 mm 1 mps 747 mmHg 47%
    10:00 +35°C° 0 mm 2 mps 747 mmHg 41%
    11:00 +35°C° 0 mm 1 mps 746 mmHg 38%
    12:00 +36°C° 0 mm 1 mps 745 mmHg 36%
    13:00 +39°C° 0 mm 1 mps 744 mmHg 33%
    14:00 +37°C° 0 mm 1 mps 744 mmHg 35%
    15:00 +36°C° 0 mm 1 mps 743 mmHg 36%
    16:00 +35°C° 0 mm 1 mps 743 mmHg 38%
    17:00 +33°C° 0 mm 1 mps 743 mmHg 44%
    18:00 +32°C° 0 mm 1 mps 743 mmHg 49%
    19:00 +30°C° 0 mm 1 mps 744 mmHg 55%
    20:00 +29°C° 0 mm 1 mps 744 mmHg 59%
    21:00 +28°C° 0 mm 1 mps 745 mmHg 62%
    22:00 +27°C° 0 mm 1 mps 745 mmHg 66%
    23:00 +27°C° 0 mm 1 mps 745 mmHg 70%

    Tomorrow, 27 January, Monday

    Time Temperature Precipitation Wind Pressure Humidity
    00:00 +26°C° 0 mm 1 mps 745 mmHg 73%
    01:00 +25°C° 0 mm 1 mps 744 mmHg 76%
    02:00 +25°C° 0 mm 1 mps 744 mmHg 78%
    03:00 +25°C° 0 mm 1 mps 744 mmHg 79%
    04:00 +24°C° 0 mm 1 mps 744 mmHg 81%
    05:00 +25°C° 0 mm 1 mps 745 mmHg 79%
    06:00 +25°C° 0 mm 1 mps 745 mmHg 77%
    07:00 +26°C° 0 mm 1 mps 746 mmHg 74%
    08:00 +29°C° 0 mm 1 mps 746 mmHg 63%
    09:00 +32°C° 0 mm 1 mps 747 mmHg 52%
    10:00 +35°C° 0 mm 1 mps 747 mmHg 41%
    11:00 +36°C° 0 mm 1 mps 746 mmHg 37%
    12:00 +37°C° 0 mm 1 mps 745 mmHg 33%
    13:00 +39°C° 0 mm 1 mps 744 mmHg 29%
    14:00 +39°C° 0 mm 1 mps 744 mmHg 29%
    15:00 +37°C° 0 mm 1 mps 743 mmHg 29%
    16:00 +35°C° 0 mm 0 mps 742 mmHg 30%
    17:00 +34°C° 0 mm 1 mps 743 mmHg 37%
    18:00 +32°C° 0 mm 1 mps 743 mmHg 45%
    19:00 +30°C° 0 mm 1 mps 744 mmHg 52%
    20:00 +29°C° 0 mm 1 mps 744 mmHg 58%
    21:00 +28°C° 0 mm 1 mps 744 mmHg 65%
    22:00 +27°C° 0 mm 1 mps 745 mmHg 71%
    23:00 +26°C° 0 mm 1 mps 745 mmHg 73%

    Day after tomorrow, 28 January, Tuesday

    Time Temperature Precipitation Wind Pressure Humidity
    00:00 +26°C° 0 mm 1 mps 744 mmHg 76%
    01:00 +25°C° 0 mm 2 mps 744 mmHg 79%
    02:00 +25°C° 0 mm 1 mps 744 mmHg 80%
    03:00 +24°C° 0 mm 1 mps 744 mmHg 81%
    04:00 +24°C° 0 mm 1 mps 744 mmHg 82%
    05:00 +24°C° 0 mm 1 mps 744 mmHg 79%
    06:00 +25°C° 0 mm 1 mps 745 mmHg 77%
    07:00 +25°C° 0 mm 1 mps 746 mmHg 75%
    08:00 +28°C° 0 mm 1 mps 746 mmHg 63%
    09:00 +32°C° 0 mm 1 mps 746 mmHg 51%
    10:00 +35°C° 0 mm 1 mps 746 mmHg 40%
    11:00 +36°C° 0 mm 1 mps 746 mmHg 36%
    12:00 +37°C° 0 mm 1 mps 745 mmHg 32%
    13:00 +40°C° 0 mm 1 mps 744 mmHg 29%
    14:00 +39°C° 0 mm 1 mps 743 mmHg 29%
    15:00 +37°C° 0 mm 1 mps 743 mmHg 30%
    16:00 +37°C° 0 mm 1 mps 742 mmHg 31%
    17:00 +34°C° 0 mm 1 mps 742 mmHg 39%
    18:00 +32°C° 0 mm 1 mps 743 mmHg 48%
    19:00 +29°C° 0 mm 2 mps 743 mmHg 56%
    20:00 +28°C° 0 mm 2 mps 743 mmHg 60%
    21:00 +27°C° 0 mm 2 mps 744 mmHg 64%
    22:00 +26°C° 0 mm 1 mps 744 mmHg 69%
    23:00 +26°C° 0 mm 1 mps 744 mmHg 70%

    29 January, Wednesday

    Time Temperature Precipitation Wind Pressure Humidity
    00:00 +25°C° 0 mm 1 mps 743 mmHg 72%
    01:00 +24°C° 0 mm 1 mps 743 mmHg 74%
    02:00 +24°C° 0 mm 1 mps 743 mmHg 76%
    03:00 +24°C° 0 mm 1 mps 743 mmHg 78%
    04:00 +24°C° 0 mm 1 mps 743 mmHg 80%
    05:00 +24°C° 0 mm 1 mps 744 mmHg 79%
    06:00 +25°C° 0 mm 1 mps 745 mmHg 78%
    07:00 +25°C° 0 mm 1 mps 745 mmHg 77%
    08:00 +29°C° 0 mm 1 mps 746 mmHg 65%
    09:00 +32°C° 0 mm 1 mps 746 mmHg 52%
    10:00 +35°C° 0 mm 1 mps 746 mmHg 40%
    11:00 +37°C° 0 mm 1 mps 745 mmHg 36%
    12:00 +39°C° 0 mm 1 mps 744 mmHg 31%
    13:00 +40°C° 0 mm 1 mps 744 mmHg 27%
    14:00 +39°C° 0 mm 1 mps 743 mmHg 29%
    15:00 +39°C° 0 mm 1 mps 743 mmHg 30%
    16:00 +37°C° 0 mm 1 mps 742 mmHg 32%
    17:00 +35°C° 0 mm 2 mps 742 mmHg 43%
    18:00 +32°C° 0 mm 2 mps 743 mmHg 54%
    19:00 +29°C° 0 mm 2 mps 743 mmHg 65%
    20:00 +28°C° 0 mm 2 mps 743 mmHg 69%
    21:00 +27°C° 0 mm 2 mps 744 mmHg 72%
    22:00 +26°C° 0 mm 2 mps 744 mmHg 76%
    23:00 +26°C° 0 mm 2 mps 744 mmHg 77%

    30 January, Thursday

    Time Temperature Precipitation Wind Pressure Humidity
    00:00 +25°C° 0 mm 2 mps 744 mmHg 79%
    01:00 +25°C° 0 mm 1 mps 743 mmHg 80%
    02:00 +25°C° 0 mm 1 mps 743 mmHg 81%
    03:00 +25°C° 0 mm 1 mps 743 mmHg 82%
    04:00 +25°C° 0 mm 1 mps 743 mmHg 83%
    05:00 +25°C° 0 mm 1 mps 744 mmHg 81%
    06:00 +25°C° 0 mm 1 mps 745 mmHg 79%
    07:00 +26°C° 0 mm 1 mps 746 mmHg 77%
    08:00 +29°C° 0 mm 1 mps 746 mmHg 66%
    09:00 +32°C° 0 mm 1 mps 746 mmHg 54%
    10:00 +35°C° 0 mm 1 mps 746 mmHg 43%
    11:00 +36°C° 0 mm 1 mps 745 mmHg 40%
    12:00 +37°C° 0 mm 1 mps 744 mmHg 36%
    13:00 +39°C° 0 mm 1 mps 744 mmHg 33%
    14:00 +37°C° 0 mm 1 mps 743 mmHg 36%
    15:00 +36°C° 0 mm 1 mps 742 mmHg 38%
    16:00 +35°C° 0 mm 1 mps 742 mmHg 41%
    17:00 +33°C° 0 mm 1 mps 742 mmHg 47%
    18:00 +31°C° 0 mm 1 mps 743 mmHg 53%
    19:00 +30°C° 0 mm 1 mps 743 mmHg 59%
    20:00 +29°C° 0 mm 1 mps 743 mmHg 63%
    21:00 +28°C° 0 mm 1 mps 744 mmHg 67%
    22:00 +28°C° 0 mm 1 mps 744 mmHg 71%
    23:00 +27°C° 0 mm 1 mps 744 mmHg 72%

    31 January, Friday

    Time Temperature Precipitation Wind Pressure Humidity
    00:00 +27°C° 0 mm 1 mps 744 mmHg 73%
    01:00 +27°C° 0 mm 1 mps 744 mmHg 74%
    02:00 +26°C° 0 mm 1 mps 744 mmHg 76%
    03:00 +25°C° 0 mm 1 mps 744 mmHg 79%
    04:00 +25°C° 0 mm 1 mps 744 mmHg 81%
    05:00 +25°C° 0 mm 1 mps 744 mmHg 79%
    06:00 +24°C° 0 mm 0 mps 745 mmHg 77%
    07:00 +25°C° 0 mm 0 mps 745 mmHg 75%
    08:00 +29°C° 0 mm 1 mps 746 mmHg 65%
    09:00 +32°C° 0 mm 1 mps 746 mmHg 55%
    10:00 +34°C° 0 mm 1 mps 746 mmHg 45%
    11:00 +37°C° 0 mm 2 mps 746 mmHg 40%
    12:00 +38°C° 0 mm 2 mps 745 mmHg 35%
    13:00 +40°C° 0 mm 2 mps 744 mmHg 30%
    14:00 +39°C° 0 mm 2 mps 744 mmHg 32%
    15:00 +38°C° 0 mm 2 mps 743 mmHg 34%
    16:00 +37°C° 0 mm 2 mps 742 mmHg 37%
    17:00 +35°C° 0 mm 2 mps 743 mmHg 45%
    18:00 +32°C° 0 mm 2 mps 743 mmHg 54%
    19:00 +30°C° 0 mm 2 mps 744 mmHg 62%
    20:00 +29°C° 0 mm 2 mps 744 mmHg 66%
    21:00 +27°C° 0 mm 2 mps 744 mmHg 71%
    22:00 +26°C° 0 mm 1 mps 745 mmHg 75%
    23:00 +26°C° 0 mm 1 mps 745 mmHg 77%
    Show more